Vorticity
nan nan nan nan nan nan nan nan nan nan nan nan nan nan nan nan nan nan nan nan nan nan
nan 9 9 8 7 8 9 9 8 9 10 11 12 11 10 9 9 9 9 10 8 nan
nan 7 8 9 8 8 9 8 9 10 10 10 11 12 11 9 10 8 8 10 9 nan
nan 8 8 8 9 9 9 8 9 10 10 10 10 11 11 10 11 9 8 9 9 nan
nan 9 9 8 9 9 9 9 9 9 10 10 10 10 10 10 11 10 10 9 10 nan
nan 8 8 8 8 8 9 9 9 9 8 9 9 10 10 10 10 11 11 11 10 nan
nan 9 8 8 8 8 9 8 9 9 9 9 9 10 10 10 10 11 10 10 10 nan
nan 9 8 8 9 9 9 9 9 8 9 10 11 8 7 9 10 9 9 10 11 nan
nan 9 8 8 8 8 8 10 9 9 9 10 9 5 7 10 12 9 9 9 10 nan
nan 9 9 9 9 9 10 10 9 9 9 10 7 6 8 11 13 10 9 9 8 nan
nan 10 10 9 9 10 10 9 9 10 9 10 7 6 8 14 14 10 9 10 10 nan
nan 9 9 9 10 11 10 10 11 9 9 8 7 8 9 14 14 11 10 10 10 nan
nan 9 9 10 12 12 10 8 8 11 11 8 8 9 10 13 14 11 10 11 9 nan
nan nan nan nan nan nan nan nan nan nan nan nan nan nan nan nan nan nan nan nan nan nan
CAPE
0 0 0 0 0 0 0 0 0 0 0 0 0 0 0 0 0 0 0 0 0 0
0 0 0 0 0 0 0 0 0 0 0 0 0 0 0 0 0 0 0 0 0 0
0 0 0 0 0 0 0 0 0 0 0 0 0 0 0 0 0 0 0 0 0 0
0 0 0 0 0 0 0 0 0 0 0 0 0 0 0 0 0 0 0 0 0 0
0 0 0 0 0 0 0 0 0 0 0 0 0 0 0 0 0 0 0 0 0 0
0 0 0 0 0 0 0 0 0 0 0 0 0 0 0 0 0 0 0 0 0 0
0 0 0 0 0 0 0 0 0 0 0 0 0 0 0 0 0 0 0 0 0 0
0 0 0 0 0 0 0 0 0 0 0 0 0 0 0 0 0 0 0 0 0 0
0 0 0 0 0 0 0 0 0 0 0 0 0 0 0 0 0 0 0 0 0 0
0 0 0 0 0 0 0 0 0 0 0 0 0 0 0 0 0 0 0 0 0 0
0 0 0 0 0 0 0 0 0 0 0 0 0 0 0 0 0 0 0 0 0 0
0 0 0 0 0 0 0 0 0 0 0 0 0 0 0 0 0 0 0 0 0 0
0 0 0 0 0 0 0 0 0 0 0 0 0 0 0 0 0 0 0 0 0 0
0 0 0 0 0 0 0 0 0 0 0 0 0 0 0 0 0 0 0 0 0 0